Location: Dammartin
(48.9032°N, 1.6195°E)
Time: 12:25:57
(UTC+00:00)

Cosmos 2278 Rocket - Pass Details

Date: 03 February 2023
Orbit: 841 x 845 km, 71.0° (Epoch: 25 March)

Event Time Altitude Azimuth Distance (km) Brightness Sun altitude
Rises 19:54:37 0° 332° (NNW) 3,416 5.8 -29.8°
Reaches altitude 10° 19:57:05 10° 335° (NNW) 2,477 5.0 -30.2°
Enters shadow 20:00:50 42° 348° (NNW) 1,196 3.0 -30.8°
